This is the latest recevied weather packets stored in our database for station/object IU2EBF-4. If no packets are shown the sender has not sent any weather packets the latest 10 day(s).
| Time | Temp. | Humidity | Pressure | Rain* | Wind** | Luminosity | Snow |
|---|---|---|---|---|---|---|---|
| 1777642103 | 17.78° C | 45% | 1049 hPa | - | - | - | - |
| 1777641378 | 17.78° C | 46% | 1049 hPa | - | - | - | - |
| 1777640653 | 18.33° C | 47% | 1049 hPa | - | - | - | - |
| 1777639928 | 18.33° C | 46% | 1049 hPa | - | - | - | - |
| 1777639203 | 18.33° C | 47% | 1049 hPa | - | - | - | - |
| 1777638478 | 18.33° C | 46% | 1049 hPa | - | - | - | - |
| 1777637754 | 18.89° C | 45% | 1049 hPa | - | - | - | - |
| 1777637029 | 19.44° C | 46% | 1049 hPa | - | - | - | - |
| 1777636304 | 20° C | 45% | 1049 hPa | - | - | - | - |
| 1777635579 | 18.89° C | 46% | 1049 hPa | - | - | - | - |
| 1777634854 | 19.44° C | 43% | 1049 hPa | - | - | - | - |
| 1777634129 | 20° C | 45% | 1049 hPa | - | - | - | - |
| 1777633405 | 19.44° C | 45% | 1049 hPa | - | - | - | - |
| 1777632680 | 20.56° C | 44% | 1050 hPa | - | - | - | - |
| 1777631955 | 19.44° C | 46% | 1049 hPa | - | - | - | - |
| 1777631230 | 18.89° C | 44% | 1049 hPa | - | - | - | - |
| 1777630505 | 18.33° C | 46% | 1049 hPa | - | - | - | - |
| 1777629780 | 17.22° C | 45% | 1049 hPa | - | - | - | - |
| 1777629055 | 16.67° C | 47% | 1049 hPa | - | - | - | - |
| 1777628331 | 12.78° C | 48% | 1049 hPa | - | - | - | - |
| 1777627606 | 15.56° C | 48% | 1049 hPa | - | - | - | - |
| 1777626881 | 15° C | 50% | 1049 hPa | - | - | - | - |
| 1777626156 | 12.22° C | 52% | 1049 hPa | - | - | - | - |
| 1777625431 | 9.44° C | 51% | 1049 hPa | - | - | - | - |
| 1777625431 | 9.44° C | 51% | 1049 hPa | - | - | - | - |
* Rain since midnight (hover to see other rain measurements)
** Current wind speed in m/s (hover to see current wind gust speed)